| DS18B20 | SHTC3 | ||||||
|---|---|---|---|---|---|---|---|
| ID | Date d/m/Y & Time | data1 สูง | data2 ต่ำ | data3 นอก | temp pcb | hum pcb | Time |
| 9973 | 08/04/2026 14:56:42 | 34.4  | 33.8  | 34.4  | 33.8  | 58.3  | 14:56 |
| 9972 | 08/04/2026 14:51:59 | 34.4  | 33.9  | 34.2  | 33.8  | 58.7  | 14:51 |
| 9971 | 08/04/2026 14:47:16 | 34.5  | 33.9  | 34.5  | 33.9  | 58.5  | 14:47 |
| 9970 | 08/04/2026 14:42:33 | 34.6  | 33.9  | 34.7  | 34.0  | 58.7  | 14:42 |
| 9969 | 08/04/2026 14:37:51 | 34.6  | 33.9  | 34.7  | 33.8  | 58.7  | 14:37 |
| 9968 | 08/04/2026 14:33:10 | 34.7  | 34.0  | 34.7  | 34.1  | 58.0  | 14:33 |
| 9967 | 08/04/2026 14:28:25 | 34.8  | 34.0  | 34.6  | 34.1  | 59.8  | 14:28 |
| 9966 | 08/04/2026 14:23:42 | 34.9  | 34.0  | 35.2  | 33.9  | 60.2  | 14:23 |
| 9965 | 08/04/2026 14:19:00 | 34.9  | 34.1  | 35.1  | 34.1  | 60.1  | 14:19 |
| 9964 | 08/04/2026 14:14:19 | 35.0  | 34.0  | 35.0  | 34.0  | 59.6  | 14:14 |
| 9963 | 08/04/2026 14:09:36 | 35.1  | 34.1  | 35.2  | 34.1  | 61.3  | 14:09 |
| 9962 | 08/04/2026 14:04:54 | 35.2  | 33.8  | 35.4  | 34.5  | 64.1  | 14:04 |
| 9961 | 08/04/2026 14:00:12 | 35.2  | 33.6  | 35.2  | 34.4  | 65.3  | 14:00 |
| 9960 | 08/04/2026 13:55:30 | 35.2  | 33.6  | 35.4  | 34.6  | 65.4  | 13:55 |
| 9959 | 08/04/2026 13:50:48 | 35.2  | 33.6  | 35.4  | 34.3  | 65.6  | 13:50 |
| 9958 | 08/04/2026 13:46:05 | 35.2  | 33.6  | 35.5  | 34.5  | 65.6  | 13:46 |
| 9957 | 08/04/2026 13:41:24 | 35.2  | 33.6  | 35.5  | 34.4  | 65.5  | 13:41 |
| 9956 | 08/04/2026 13:36:41 | 35.1  | 33.5  | 35.4  | 34.5  | 65.5  | 13:36 |
| 9955 | 08/04/2026 13:31:59 | 35.1  | 33.5  | 35.8  | 34.4  | 65.4  | 13:31 |
| 9954 | 08/04/2026 13:27:17 | 35.1  | 33.4  | 35.8  | 34.1  | 65.2  | 13:27 |
| 9953 | 08/04/2026 13:22:33 | 35.1  | 33.4  | 35.7  | 34.1  | 65.3  | 13:22 |
| 9952 | 08/04/2026 13:17:50 | 35.1  | 33.4  | 35.7  | 34.1  | 65.2  | 13:17 |
| 9951 | 08/04/2026 13:13:08 | 35.1  | 33.3  | 35.7  | 34.1  | 65.2  | 13:13 |
| 9950 | 08/04/2026 13:08:24 | 35.0  | 33.3  | 35.8  | 34.2  | 65.2  | 13:08 |